RH
71 70 70 71 73 74 75 78 79 78 76 73 69 67 65 63 62 60 59 57 54 52 49 48 46 45 44 43 42 40 40 40 40 40 40 41 41 42 42 43 44 45 44 44 44 44 44 44 44 44 44 44 43 43 43 43 43 43 44 45 45 46 46 45 44 44 43 43 43 42 42 41 41 40 40 39 38 37 36 35 34 33 32 31 30 29 28 28 27 27 26 26 26 26 26 24 24
59 57 56 56 58 58 59 62 65 67 68 67 64 61 57 54 53 52 51 49 48 47 46 46 46 46 46 46 45 45 45 45 45 44 44 44 45 45 44 44 44 43 42 42 43 43 43 43 43 43 43 44 45 46 48 49 50 50 50 49 48 47 45 44 44 44 44 44 44 44 43 42 40 39 38 37 36 34 33 32 31 30 28 28 27 26 25 25 24 23 23 23 23 24 24 23 23
53 52 51 51 53 53 54 54 55 56 58 59 59 58 56 54 53 51 50 49 48 47 48 48 49 49 49 50 50 50 49 49 48 47 47 46 46 45 44 44 44 44 44 44 45 46 47 49 51 53 56 59 59 59 58 57 56 55 54 52 51 49 49 48 47 46 45 43 42 40 38 37 36 34 33 31 30 29 28 27 27 26 25 25 24 24 23 22 22 21 21 20 21 21 21 22 22
53 51 50 50 50 53 53 54 54 54 55 55 57 57 56 56 54 53 52 51 51 51 51 51 52 52 52 52 51 51 50 50 49 48 48 48 47 46 46 48 50 50 51 52 55 58 62 67 72 74 74 71 66 61 58 57 58 58 57 57 55 53 52 49 46 43 40 38 36 34 33 32 31 30 29 28 27 26 25 25 24 24 23 23 22 22 21 21 21 20 20 20 20 19 19 20 20
50 52 52 52 52 54 54 54 54 54 54 54 54 54 54 54 52 52 51 52 54 55 56 56 55 54 53 52 51 50 50 50 50 51 52 53 53 53 54 57 61 64 67 72 76 80 83 84 82 77 70 63 60 59 60 61 61 61 59 56 53 49 45 42 39 37 35 34 32 31 30 29 28 27 27 26 26 25 25 24 24 23 23 23 22 22 21 21 21 21 20 20 20 19 19 19 19
50 54 55 55 55 55 55 53 52 53 53 52 51 51 52 52 53 54 55 57 58 59 58 57 55 53 51 50 50 51 52 55 57 61 63 66 66 66 70 76 81 85 88 91 91 88 83 77 70 64 60 61 63 64 64 62 58 54 50 46 43 40 38 36 35 34 33 33 32 31 30 29 28 28 27 26 26 26 25 25 25 24 24 24 24 23 23 22 21 21 21 21 20 20 20 20 20
59 59 58 57 57 56 54 52 51 51 51 51 52 55 58 60 61 62 62 62 61 59 57 55 53 50 50 50 54 57 63 69 74 78 80 82 81 83 87 91 93 92 91 87 82 76 70 65 62 63 64 66 65 62 57 52 47 43 41 40 38 38 37 37 36 36 35 34 33 32 31 30 30 29 29 28 27 27 27 26 26 26 25 25 25 25 24 24 23 22 21 21 21 21 20 20 20
62 60 59 58 57 56 54 53 54 57 60 62 64 65 66 66 65 63 62 59 56 52 49 49 46 47 52 56 64 72 80 87 89 91 92 93 93 95 95 94 91 86 81 75 70 66 65 65 65 66 65 62 56 51 46 43 43 42 42 43 43 43 43 42 41 40 39 37 36 34 33 32 32 31 30 30 29 29 28 27 27 26 26 25 24 24 25 24 24 23 22 21 21 21 20 20 20
59 58 57 57 59 63 67 70 72 73 74 72 70 67 62 58 55 51 48 45 43 43 44 48 50 57 67 74 82 88 92 95 96 98 98 97 97 96 94 90 85 79 74 69 66 65 64 64 63 60 55 51 48 46 46 47 49 50 51 51 51 50 49 48 46 45 43 41 39 37 35 34 33 32 31 30 30 29 29 28 28 27 27 26 24 24 23 23 23 22 22 21 21 21 20 20 20
62 64 64 67 71 78 83 82 79 75 70 62 56 50 46 43 41 41 42 45 49 56 63 71 77 82 87 89 91 92 94 96 97 99 97 95 93 90 86 82 77 73 70 67 64 63 61 58 56 53 51 50 51 53 54 56 57 57 57 57 56 54 52 50 48 46 43 41 39 37 35 34 32 31 30 29 29 29 28 28 28 28 28 27 26 25 24 23 22 22 21 21 20 20 20 19 19
70 74 75 75 73 73 72 66 61 56 50 47 46 46 49 53 57 61 65 71 76 82 88 93 95 95 94 92 90 91 93 94 94 93 91 88 85 81 78 75 72 69 65 63 61 59 57 55 54 53 54 56 58 60 61 61 61 60 59 57 55 52 49 46 44 42 39 38 35 34 32 31 30 29 29 28 28 27 27 27 27 27 27 28 27 26 25 24 23 22 21 20 20 19 19 18 18
55 56 57 58 57 56 54 51 49 50 52 57 66 72 77 83 86 88 89 91 93 95 97 98 97 96 96 93 90 89 87 86 83 80 78 75 73 71 69 67 65 63 61 59 58 58 58 57 57 59 61 64 64 64 63 63 61 59 57 54 50 47 44 41 38 36 34 33 31 29 28 27 26 26 26 25 25 25 25 25 25 25 25 26 25 25 25 25 24 23 22 21 20 19 18 18 17
52 50 52 56 57 59 62 64 66 72 79 84 89 91 93 97 98 99 99 97 97 98 98 99 98 96 95 92 87 82 78 74 71 68 65 63 63 63 63 62 61 61 60 60 60 61 61 63 65 67 68 67 66 64 63 61 58 55 51 48 44 41 39 36 34 32 30 28 27 26 25 24 24 23 23 23 23 23 23 23 23 23 23 23 22 23 23 23 23 22 22 21 20 19 18 17 17
78 77 78 78 75 78 84 86 89 92 96 98 98 98 99 101 102 102 102 100 99 100 100 100 98 95 92 88 83 77 72 68 65 63 62 61 62 64 64 63 63 64 64 65 67 69 71 72 72 71 68 67 65 62 59 56 52 48 45 43 40 37 34 32 31 29 28 28 27 26 26 25 25 24 24 23 23 23 22 22 22 22 21 21 20 20 20 20 20 19 19 18 18 18 17 16 16
77 77 79 81 83 88 93 96 98 99 100 100 101 101 102 102 103 103 103 103 102 101 99 97 93 89 86 81 76 71 67 64 63 63 65 66 68 70 70 70 70 70 72 74 76 77 77 75 71 69 66 64 61 57 54 50 47 44 42 39 36 34 33 32 32 31 31 30 30 29 28 27 26 25 23 22 21 20 19 19 18 18 17 17 16 16 15 15 15 14 14 14 14 13 13 13 13
73 74 78 85 92 96 97 99 100 101 101 101 102 103 104 103 102 103 102 102 100 97 92 88 84 80 76 71 68 65 63 62 64 66 69 72 75 77 77 76 76 77 79 80 79 77 74 70 67 65 62 59 56 53 50 46 43 40 37 36 35 35 35 36 35 35 33 31 30 28 26 24 23 20 18 17 15 14 13 12 12 11 11 11 11 10 10 10 10 10 9 10 10 9 10 10 10
92 93 95 98 100 101 101 102 103 104 104 103 104 104 105 104 101 101 100 97 93 88 83 79 75 72 70 68 67 66 66 67 69 71 73 75 78 80 81 81 81 81 81 78 75 72 69 66 63 60 58 55 52 49 44 40 38 37 37 38 38 39 38 37 35 33 30 27 25 22 21 19 17 15 13 12 11 11 10 10 9 9 9 8 8 8 8 8 8 8 8 8 8 8 8 8 9
101 101 102 102 101 102 101 101 101 101 101 101 102 103 104 104 103 100 95 89 84 79 76 74 73 72 71 70 70 72 73 74 75 76 77 79 81 84 85 85 83 80 77 74 71 68 65 63 60 57 54 50 46 41 38 38 38 39 40 40 39 37 35 32 29 26 23 20 18 16 15 14 13 13 12 12 12 12 12 12 11 11 10 10 10 9 9 9 9 8 8 8 8 8 8 8 8
100 99 98 97 97 97 97 97 96 97 99 101 103 103 103 102 99 94 88 84 80 77 73 72 73 74 76 77 79 80 80 80 81 82 84 85 87 87 86 83 79 75 73 70 67 66 63 61 57 52 47 43 40 38 38 39 40 40 39 37 35 31 28 25 21 19 17 16 14 14 14 14 14 14 14 15 15 15 15 14 14 14 13 13 12 12 12 11 11 10 10 9 9 8 8 8 8
101 102 101 98 98 98 100 101 101 101 101 103 104 102 100 98 94 89 85 82 77 73 71 73 77 82 85 87 87 88 87 87 88 89 89 88 87 85 82 79 75 72 70 67 65 63 59 55 51 47 43 41 40 39 40 40 40 38 36 33 29 25 22 19 17 15 15 15 15 15 15 16 16 16 17 17 17 17 17 16 16 16 15 15 14 14 14 14 14 13 13 12 11 11 10 9 8
104 105 107 106 104 104 104 103 103 102 101 103 102 97 94 91 88 85 82 79 77 75 77 83 89 93 95 95 94 94 93 92 91 89 87 85 82 80 76 74 70 67 65 62 59 56 52 50 47 46 44 43 43 42 42 41 40 36 32 27 24 21 18 16 15 15 15 16 16 17 17 17 17 18 18 18 18 18 18 17 17 16 15 15 15 14 14 14 15 15 15 15 15 15 14 12 12
103 103 105 106 105 105 105 104 102 100 98 96 92 89 86 84 84 85 85 86 87 89 92 96 99 100 100 99 97 95 91 89 86 83 81 77 73 70 68 66 63 61 59 57 54 53 52 51 49 48 48 48 48 47 45 43 39 33 28 24 21 19 17 16 16 16 17 18 18 18 18 18 20 20 19 19 19 19 18 17 16 15 14 13 13 13 14 14 14 15 16 16 17 17 17 17 16
103 103 102 103 103 103 103 100 98 95 93 90 88 88 89 90 91 93 96 98 99 100 101 101 100 99 97 94 90 88 84 81 77 73 69 65 62 60 61 61 60 59 58 57 57 58 58 55 53 52 53 53 51 48 45 42 37 31 27 24 21 18 17 17 17 18 19 19 19 19 20 21 22 21 21 21 20 18 16 14 13 12 11 11 10 10 11 13 14 15 17 17 18 18 19 19 19
103 104 103 102 100 99 97 95 95 92 89 88 89 91 95 99 100 101 102 102 101 99 98 95 93 90 87 85 81 77 72 67 62 59 59 59 59 60 60 61 61 62 62 61 62 62 61 58 56 56 56 54 50 47 43 40 35 31 27 22 20 18 18 18 19 20 20 21 21 21 23 24 23 23 24 22 18 16 14 14 13 13 11 10 10 9 9 11 13 15 18 19 20 21 21 21 21
104 103 102 100 97 95 93 92 91 89 89 90 93 95 99 102 102 102 100 97 93 90 88 86 84 82 78 73 66 61 57 55 55 56 60 62 63 63 63 62 62 63 63 63 62 61 59 58 57 57 55 52 48 45 42 39 34 28 24 20 19 18 19 20 21 22 22 23 22 24 25 25 26 27 24 19 16 16 16 16 16 15 14 12 11 10 10 11 13 17 19 22 23 24 25 25 25
102 100 98 97 95 93 90 89 88 90 94 98 100 99 100 100 98 96 93 88 85 83 81 79 76 70 63 57 53 52 53 57 62 66 67 68 69 69 66 64 63 63 62 61 59 59 59 59 59 57 55 52 49 46 41 35 29 24 21 19 20 20 21 22 23 23 24 24 24 26 27 28 30 27 22 18 18 19 19 19 19 18 17 16 14 11 11 11 14 18 22 25 27 27 28 27 25
97 97 97 95 94 91 89 89 91 94 98 101 101 100 98 95 91 91 89 86 83 80 77 71 65 59 55 53 54 58 63 69 75 78 78 77 76 73 69 67 65 64 63 62 62 63 64 64 63 61 59 56 50 43 36 29 24 22 21 21 21 22 22 23 24 24 25 25 26 29 30 32 31 25 21 21 22 22 22 21 20 20 19 19 18 16 13 13 14 17 21 25 27 27 26 24 23
95 96 96 94 95 94 93 94 95 96 98 99 99 98 97 91 88 91 89 85 82 77 71 65 62 62 63 63 65 69 72 78 85 88 87 84 78 73 71 69 68 68 68 69 69 69 69 68 66 64 60 53 45 36 28 24 22 22 22 23 23 23 24 24 26 27 27 27 30 34 35 34 29 23 23 24 25 25 24 23 22 21 21 20 20 20 18 17 17 17 19 22 23 24 23 23 23
98 98 99 99 99 99 98 97 97 97 98 97 96 97 99 95 89 90 88 82 78 73 68 66 68 73 76 77 77 77 77 79 84 88 87 83 78 74 72 72 73 74 75 73 71 70 70 68 64 60 53 44 34 27 24 23 23 23 24 25 25 25 25 27 28 29 29 32 36 39 38 32 26 24 26 27 27 26 25 23 23 22 22 22 22 22 22 21 21 22 22 24 25 25 25 25 25
104 103 103 102 101 101 99 98 98 98 97 97 96 97 103 101 91 88 85 79 75 72 71 74 77 80 85 88 88 88 89 89 90 89 88 85 80 75 74 76 80 80 78 75 73 72 68 64 59 53 44 34 27 24 24 24 25 26 27 27 27 27 28 28 27 26 29 35 41 41 35 28 26 28 29 29 28 27 26 25 24 24 23 24 24 24 24 23 24 24 25 26 27 27 27 26 26
105 104 104 102 100 100 99 97 97 97 98 100 99 98 104 105 96 90 86 81 79 81 83 84 83 85 93 97 94 92 96 102 105 102 97 91 85 79 77 79 82 81 80 78 76 72 66 61 54 45 35 28 26 26 26 27 28 29 29 30 30 31 29 25 22 25 32 40 42 36 30 28 29 30 30 30 29 28 27 27 26 26 26 26 26 26 26 26 26 26 26 26 26 27 27 27 26
102 100 100 99 99 100 99 98 98 99 102 103 100 98 103 107 101 93 89 86 88 93 93 89 87 93 101 104 97 91 91 99 107 108 102 94 87 82 78 79 81 81 81 78 74 70 65 57 46 36 29 28 28 29 30 31 31 32 33 35 37 35 28 24 25 31 38 41 37 32 30 31 32 32 32 31 30 29 29 29 28 28 28 29 29 29 29 29 28 29 28 27 27 27 27 28 27
98 97 100 101 102 102 103 103 102 102 103 103 100 101 104 104 99 95 94 94 96 98 97 93 94 100 104 106 103 96 93 94 98 101 97 91 87 84 79 80 82 81 79 75 71 66 57 46 35 30 30 31 31 32 32 32 33 36 39 43 43 36 29 29 32 35 38 36 33 32 33 35 35 34 33 33 32 32 31 30 30 30 30 30 31 31 31 31 31 31 31 30 30 30 30 30 30
99 100 103 105 104 106 107 106 105 103 103 103 101 100 100 99 99 99 98 99 101 101 102 100 99 100 100 100 99 97 96 96 95 95 94 92 89 84 80 82 83 80 76 71 65 56 44 35 31 32 33 33 33 33 33 34 38 41 44 47 43 35 32 33 33 34 35 34 34 35 36 36 36 35 34 33 33 33 33 33 32 32 31 31 32 32 32 32 32 33 33 32 32 32 33 32 32
98 98 101 105 107 109 107 104 104 103 101 103 100 94 94 99 104 104 102 101 101 103 104 101 99 100 100 98 97 97 97 97 98 99 98 95 88 83 82 82 81 77 73 65 54 42 35 33 34 35 35 35 34 34 37 40 42 41 43 44 40 36 35 34 34 34 34 35 36 37 37 37 36 36 35 34 34 33 33 33 33 33 33 33 34 34 34 34 34 35 35 35 35 34 34 35 34
97 98 101 104 104 106 104 101 100 100 101 105 103 97 99 104 104 104 103 100 98 101 101 100 102 105 105 103 102 99 96 97 99 99 95 91 86 83 82 81 78 73 65 53 41 35 34 35 36 36 37 37 39 42 45 45 40 37 38 39 38 37 37 37 37 37 37 37 38 38 38 37 37 37 36 36 36 36 36 36 36 36 36 37 38 38 39 38 38 37 37 38 38 37 37 36 36
100 100 99 99 99 101 104 103 103 105 104 105 104 101 102 105 102 101 102 102 101 102 100 102 106 107 106 104 100 96 96 97 97 94 91 88 86 85 83 79 73 62 49 40 36 36 36 36 37 38 41 44 47 49 47 40 34 33 35 36 37 38 38 39 39 39 40 40 40 40 39 39 39 39 39 39 39 40 40 40 40 40 40 41 41 42 42 41 40 40 40 40 40 41 41 40 38
95 96 98 101 103 105 107 106 106 108 106 105 104 103 102 103 102 101 101 102 104 102 101 106 109 107 103 99 96 95 97 98 96 93 90 89 87 84 78 68 56 45 38 36 36 36 36 37 41 44 47 50 50 47 40 34 32 32 33 33 35 36 37 38 39 40 41 42 43 43 43 43 44 44 44 44 44 45 45 46 46 46 45 45 45 45 45 44 43 42 41 41 41 42 43 43 41
95 98 101 105 106 106 105 103 103 106 109 107 103 103 102 101 103 103 102 102 104 105 107 110 108 104 100 97 97 100 101 99 96 94 91 89 84 74 63 50 42 38 37 37 37 38 41 44 48 50 50 49 45 39 34 31 31 31 31 33 34 35 36 37 38 38 38 40 42 43 45 46 48 49 50 49 49 49 49 50 49 49 48 48 48 48 47 47 46 45 43 43 43 43 44 44 43
104 104 105 106 102 97 94 93 93 97 104 106 103 104 102 101 104 105 104 105 106 106 106 104 101 99 98 100 103 103 102 98 94 90 85 78 68 56 47 41 39 39 39 41 44 46 47 49 49 48 46 43 38 33 31 31 32 33 33 33 34 34 35 36 36 37 36 35 36 38 40 42 44 45 46 47 47 47 47 46 46 45 45 44 44 43 43 43 42 42 41 41 41 42 43 44 44
110 105 100 95 90 85 83 84 86 88 95 102 102 99 98 101 106 107 106 106 104 102 100 97 96 96 100 103 102 99 95 92 86 78 69 58 49 44 42 42 43 45 47 48 47 46 45 44 42 41 39 36 33 32 32 32 32 33 33 33 33 34 35 37 38 39 39 38 37 36 35 36 38 39 40 41 41 42 42 42 42 42 41 41 40 41 41 41 40 39 39 38 38 39 40 41 43
99 90 85 83 84 84 84 84 83 86 94 103 103 96 92 95 102 105 104 103 101 98 95 94 95 98 101 100 96 93 87 79 69 58 50 45 43 44 46 47 48 47 44 41 39 38 37 36 35 34 34 33 33 33 32 32 32 32 32 32 33 35 37 39 39 39 41 41 41 39 37 35 35 36 37 38 38 39 39 39 39 40 40 41 40 41 42 42 42 41 41 41 40 41 41 43 45
87 87 87 89 91 92 93 91 89 91 98 107 108 97 86 85 90 96 97 96 96 95 94 95 96 96 96 94 89 83 72 60 51 46 45 47 48 48 46 43 39 35 33 33 33 33 32 32 33 34 34 35 35 35 34 34 34 34 35 35 36 37 38 41 41 40 40 40 41 41 40 38 37 36 37 39 40 42 43 43 43 43 43 44 44 44 45 45 45 45 45 46 46 46 46 47 49
91 95 97 98 98 98 98 96 95 94 96 104 106 95 85 84 87 91 91 90 91 91 92 92 92 92 88 82 72 62 53 48 47 49 51 50 45 40 35 32 31 31 32 32 32 33 34 35 36 38 39 40 41 41 41 41 42 43 42 41 40 40 40 42 43 44 44 43 43 43 44 44 43 42 41 42 43 45 47 49 49 50 49 49 49 48 48 47 47 46 46 46 46 47 47 47 48
95 97 99 100 99 98 97 96 96 92 91 100 102 95 90 88 90 94 94 91 91 88 86 86 83 78 69 60 54 50 50 51 52 51 46 40 35 32 32 33 34 35 35 37 37 38 40 41 42 44 45 47 47 48 49 49 49 49 48 47 46 46 46 46 48 49 49 49 49 49 49 50 49 49 48 46 44 43 44 45 45 46 45 44 43 42 41 40 39 38 38 37 37 38 38 38 38
94 97 99 99 98 98 97 97 96 93 92 99 101 97 95 93 93 95 93 87 84 79 74 71 65 59 55 53 53 52 51 49 45 41 36 34 35 36 38 39 40 41 42 43 44 45 46 46 48 48 49 50 51 52 53 53 53 53 53 53 53 54 54 55 56 56 56 56 57 57 57 57 56 54 51 46 42 38 36 35 35 35 35 35 34 34 34 34 35 35 35 35 35 35 35 35 35
97 98 98 98 98 97 96 97 96 95 96 98 99 96 93 89 84 82 80 74 69 64 60 57 54 54 53 51 49 46 44 41 39 38 38 39 40 41 42 42 43 44 44 45 45 45 46 46 47 47 47 48 49 50 51 51 53 54 55 57 59 60 60 59 59 58 59 58 59 59 57 55 52 48 44 41 39 37 35 35 34 34 34 34 34 34 34 35 36 36 37 38 39 39 39 39 39
95 94 93 93 95 94 95 99 99 97 97 93 90 85 77 71 64 59 58 53 49 48 47 47 47 46 45 42 42 41 40 39 38 39 39 39 39 39 39 40 40 41 41 42 43 43 44 44 45 46 46 47 48 49 50 51 54 55 56 57 56 56 55 54 53 51 51 50 49 49 49 48 46 44 43 42 41 41 40 39 38 37 37 37 37 37 38 38 39 40 40 41 42 43 43 43 43
91 93 92 92 93 91 91 94 90 86 83 74 66 59 51 46 42 40 39 37 37 39 39 39 40 39 40 40 41 40 39 39 39 40 41 41 42 42 43 43 44 44 44 45 45 46 46 46 46 46 46 47 47 48 49 50 51 51 50 49 47 45 44 44 44 44 43 43 43 43 45 46 47 48 47 46 46 45 45 45 45 44 44 44 43 43 43 42 42 42 42 42 42 41 41 40 39
96 98 98 96 89 78 72 69 64 58 54 48 42 38 35 35 36 39 42 42 42 41 41 41 41 42 43 43 43 43 44 45 45 45 44 44 44 43 43 42 42 41 41 41 42 41 41 41 40 41 40 41 41 42 43 44 45 45 44 43 43 43 44 45 45 46 46 46 46 46 47 48 49 51 51 52 52 51 51 50 50 49 48 47 46 44 42 41 39 38 37 36 36 34 33 32 31
94 94 88 82 70 55 46 42 39 37 37 39 41 39 40 42 43 46 50 51 49 48 47 47 47 48 48 47 47 48 47 46 45 44 43 43 42 41 41 41 40 40 40 40 40 40 39 40 40 41 41 41 42 43 43 44 45 46 46 46 46 46 47 47 47 48 48 48 48 47 46 46 47 48 49 50 50 49 48 47 45 43 41 39 38 35 33 31 29 28 27 26 25 24 23 22 22
72 68 59 52 45 39 37 36 37 39 38 43 47 47 47 48 47 48 50 50 50 49 48 48 47 46 45 45 45 45 45 46 45 45 45 44 45 45 45 45 45 45 45 45 45 45 45 45 45 46 46 45 44 44 44 44 45 45 45 45 45 45 45 45 45 45 44 44 43 42 41 39 38 38 37 37 37 36 35 33 32 30 28 26 24 22 21 20 19 17 17 16 16 15 15 14 14
45 43 40 39 40 42 44 44 46 47 45 46 48 48 48 47 45 46 46 45 45 45 46 46 46 46 47 48 49 49 50 50 50 50 50 51 51 52 52 52 52 51 51 51 51 51 50 50 50 49 49 47 46 45 44 44 44 43 42 42 41 40 40 39 38 37 36 34 33 31 29 27 25 24 23 23 22 21 20 20 19 18 17 16 15 15 14 13 13 13 13 13 12 12 12 12 12
45 47 47 47 49 50 49 48 47 46 44 43 44 44 45 45 45 46 46 46 46 48 49 48 49 51 51 52 52 52 52 52 53 53 53 54 55 55 55 54 53 52 52 51 51 50 49 48 48 47 47 46 45 44 44 44 43 42 40 38 36 33 31 29 26 24 23 21 20 18 17 16 15 15 14 14 14 14 13 13 13 13 13 13 13 13 13 12 13 12 12 13 12 12 12 11 12
55 54 51 49 48 46 45 43 42 41 40 39 41 43 44 46 49 47 46 47 48 48 48 49 51 52 52 53 53 52 52 52 52 52 53 53 53 52 51 49 48 48 48 48 47 47 47 46 47 46 46 44 43 42 41 40 39 36 34 31 27 24 21 19 17 16 15 14 14 13 13 13 13 12 12 12 12 12 12 12 12 12 12 13 12 12 12 12 12 12 11 11 11 11 11 11 11
51 48 45 45 44 42 42 42 43 42 41 41 41 43 48 52 53 51 51 54 54 55 57 59 60 61 60 60 58 57 58 58 58 57 57 56 55 53 52 51 52 52 52 52 52 52 51 50 48 46 43 40 36 32 30 28 25 23 22 20 18 17 16 15 15 15 14 14 14 13 13 13 12 12 12 11 11 11 11 11 11 11 11 11 11 11 11 10 10 10 10 9 10 9 9 9 9
44 43 43 43 43 43 44 46 50 50 49 51 49 50 59 64 62 61 63 64 63 64 66 66 66 65 63 62 60 59 58 57 57 56 55 55 54 53 53 54 54 53 52 50 48 45 42 39 36 32 28 25 23 21 19 18 17 16 15 15 15 15 15 15 14 14 14 14 13 13 13 13 12 12 12 11 11 11 10 10 10 10 10 9 9 9 9 9 8 8 8 8 8 8 8 8 8
46 45 46 47 47 48 50 54 60 62 64 66 62 60 67 69 66 67 68 66 65 66 65 64 62 60 58 56 54 53 52 52 52 51 51 50 49 48 46 44 42 39 36 32 29 26 24 22 20 18 17 17 16 16 16 15 15 15 14 14 14 14 14 14 13 13 13 13 13 12 12 12 11 11 11 10 10 9 9 9 9 9 8 8 9 8 8 8 8 8 8 8 8 8 8 8 8
Wind_Speed
33 34 34 35 36 36 37 37 37 37 38 38 39 40 41 42 43 44 45 46 47 48 49 50 52 53 54 55 56 57 57 58 59 59 60 60 61 61 61 61 63 64 64 65 65 65 66 67 67 68 69 70 71 71 72 73 74 74 75 76 77 78 79 80 81 82 83 84 84 84 84 84 84 84 85 85 85 85 86 86 85 85 85 85 85 84 84 84 83 83 82 82 82 82 82 82 82
35 35 36 37 38 38 38 38 39 39 40 40 41 41 42 42 43 44 45 46 47 49 50 51 52 53 54 54 55 55 56 56 57 58 59 59 60 61 61 62 63 64 65 65 66 67 68 69 70 71 72 72 73 74 75 76 77 78 79 80 81 82 83 84 84 84 84 84 84 85 85 85 86 86 86 87 87 87 88 88 88 88 87 87 87 87 86 86 86 85 85 84 84 84 84 84 84
36 37 38 38 39 39 39 40 40 41 41 42 43 43 43 44 45 45 46 47 48 49 50 51 52 53 53 54 54 55 56 57 58 59 60 61 62 63 63 63 64 65 66 67 68 69 70 71 72 73 74 75 76 77 78 80 81 82 83 84 84 84 84 84 85 85 86 86 87 87 88 88 89 89 89 89 89 89 89 90 89 90 90 90 89 89 89 88 88 88 87 87 86 86 86 86 86
36 37 39 39 40 40 40 40 41 41 42 42 43 44 45 45 46 47 48 48 49 50 51 52 53 54 54 55 57 57 58 59 60 61 62 63 63 64 64 65 66 67 68 68 69 70 71 72 73 75 76 77 79 81 83 83 84 84 84 84 85 85 86 87 87 88 89 89 90 90 90 91 91 91 91 91 91 91 91 91 91 91 91 91 91 91 91 91 90 90 89 89 88 88 88 88 88
36 37 39 39 40 40 41 41 41 42 43 44 44 45 46 47 48 48 49 50 51 52 53 54 55 56 57 58 58 59 59 60 61 62 63 64 65 66 66 67 68 68 69 70 71 72 73 75 76 78 80 82 83 84 83 83 83 84 85 86 87 88 89 90 90 91 91 91 92 92 92 93 93 93 93 93 93 92 92 92 92 92 92 92 92 92 92 92 91 91 91 90 90 90 90 89 90
38 40 40 41 42 42 42 43 43 44 45 46 46 47 48 49 49 50 51 52 53 54 55 56 57 58 58 59 59 60 61 61 62 63 65 66 67 67 67 68 69 70 71 72 74 75 77 79 81 82 84 84 84 84 84 85 86 87 88 89 90 90 91 91 92 92 93 93 93 93 94 94 94 94 94 93 93 93 93 92 92 92 92 92 92 92 92 92 92 92 91 91 91 91 91 91 91
41 42 42 43 44 44 45 45 46 46 47 48 48 49 49 50 51 51 52 53 54 55 56 57 58 59 59 60 60 61 61 62 64 65 66 67 68 68 69 70 71 73 74 76 77 79 81 83 84 85 85 85 85 86 87 88 89 89 90 91 91 92 93 93 94 94 94 94 94 94 94 94 94 94 94 93 93 93 93 92 92 92 92 92 91 91 92 92 92 92 92 91 91 91 91 91 91
42 43 44 44 45 45 46 46 46 47 48 48 49 49 50 51 51 52 53 54 55 57 58 59 60 60 61 61 61 62 62 64 65 66 67 68 69 70 72 73 75 76 77 79 80 82 83 85 85 86 86 87 88 89 89 90 91 91 92 93 94 94 95 95 95 95 95 95 94 94 94 94 94 93 93 93 93 93 93 92 92 92 92 92 92 91 91 92 92 92 92 92 91 91 92 92 92
43 44 44 44 45 45 45 45 45 46 47 48 49 50 51 52 53 54 55 56 57 58 59 60 61 61 62 62 62 62 63 64 65 67 68 69 71 72 74 75 77 79 80 81 83 84 85 86 87 87 88 88 89 90 91 91 92 93 94 95 96 96 96 96 96 96 95 95 95 94 94 94 94 93 93 93 93 93 93 93 93 93 93 93 92 92 92 92 92 92 92 92 92 91 92 92 92
43 43 43 44 43 44 44 45 46 47 49 50 52 53 54 55 56 56 57 58 58 58 59 60 61 61 62 62 62 62 64 65 67 69 71 72 74 75 77 78 79 81 82 83 85 86 87 87 88 88 88 89 90 92 93 94 95 96 96 97 97 97 96 96 96 95 95 95 94 94 94 94 94 94 94 94 94 94 94 94 94 94 94 94 94 94 93 93 93 93 93 92 92 92 92 92 92
41 42 43 44 45 45 46 48 49 50 51 53 54 55 55 56 56 56 57 57 57 57 58 59 60 61 62 64 64 65 66 68 70 72 74 75 77 78 79 80 81 83 84 85 86 87 87 87 88 88 90 92 93 94 95 96 97 97 97 97 96 96 96 95 95 95 94 94 94 94 94 94 94 94 94 95 94 94 94 95 95 95 95 95 95 95 95 95 95 94 94 93 93 92 92 92 92
43 44 45 47 47 47 48 49 51 52 52 53 54 54 54 54 54 54 55 55 56 57 58 60 62 63 65 67 67 68 70 71 73 74 76 78 79 80 81 82 83 84 85 86 86 87 87 88 89 91 93 94 96 96 97 97 97 97 96 96 96 95 95 94 94 94 94 94 94 94 94 94 94 95 95 95 95 95 95 95 95 95 96 96 96 96 96 96 96 96 96 95 94 94 93 93 92
45 46 47 48 48 48 49 50 51 51 50 50 51 51 51 52 53 54 56 57 58 59 61 63 65 67 69 70 71 72 73 74 76 77 79 80 81 82 83 84 84 85 85 86 87 88 90 91 93 94 95 96 97 97 97 97 97 96 95 95 94 94 93 93 93 93 93 93 93 93 94 94 94 94 94 95 95 95 95 95 95 96 96 96 96 96 96 97 97 97 97 96 96 95 95 94 94
46 46 47 48 49 49 50 50 50 49 49 49 50 52 53 54 56 58 60 61 62 63 64 66 69 70 72 74 75 76 77 77 78 79 80 81 82 83 84 84 85 85 86 87 89 91 92 94 95 96 97 97 97 97 96 96 95 95 94 93 93 93 92 92 91 91 91 91 91 92 92 92 93 93 94 94 94 95 95 95 95 95 95 96 95 96 96 96 96 96 96 96 96 96 96 95 95
47 47 48 49 51 51 51 50 50 50 51 52 54 56 58 59 60 62 63 65 65 67 68 70 72 74 76 77 78 79 80 80 81 81 82 82 83 83 84 85 86 87 89 90 92 93 95 95 96 97 97 96 96 95 95 95 94 93 93 92 92 91 90 89 89 89 89 89 90 90 91 91 92 93 93 94 94 94 94 94 94 94 94 94 94 94 94 94 94 94 95 95 95 95 95 95 95
48 48 49 50 51 52 52 52 53 54 55 57 59 61 62 63 65 66 67 68 70 71 73 74 76 77 79 80 81 82 82 82 82 82 83 83 84 85 86 87 89 90 91 93 94 95 96 96 96 96 95 95 94 94 93 93 93 93 92 91 89 88 87 87 87 88 88 89 89 90 90 91 91 92 92 93 93 92 92 92 92 91 91 91 91 91 91 91 91 91 92 92 92 92 93 93 93
48 49 50 50 52 53 54 55 57 59 60 61 63 64 66 67 68 69 70 72 73 75 76 77 79 80 81 82 83 83 83 83 83 83 84 84 85 87 88 90 92 93 94 95 95 96 96 95 95 94 94 93 93 93 92 92 91 90 89 87 86 86 86 86 87 87 88 88 88 89 89 90 90 90 90 91 91 91 91 90 90 90 89 89 89 89 89 89 89 89 89 89 89 89 90 90 90
51 52 53 54 56 58 59 61 63 64 65 66 67 67 68 69 70 71 73 75 76 77 79 80 81 82 83 84 84 84 84 84 84 84 85 86 88 89 91 93 94 94 95 95 95 94 94 93 93 92 92 92 92 91 90 88 87 86 85 85 85 85 85 85 86 86 86 86 86 87 87 87 87 87 87 88 88 88 89 89 89 88 88 88 87 87 87 87 87 87 87 87 87 86 87 87 87
54 56 57 59 61 63 64 66 67 68 68 68 69 70 70 71 73 74 76 77 78 79 81 82 83 84 84 85 85 85 85 85 85 86 88 89 90 92 93 94 95 94 94 93 92 91 91 91 91 92 91 91 90 88 86 84 83 83 84 84 84 84 84 84 84 84 83 84 84 84 84 84 84 84 83 84 85 86 87 87 87 86 86 86 85 84 84 84 84 84 85 85 84 84 84 84 84
58 59 60 62 63 64 66 66 67 68 69 70 71 72 73 74 75 77 78 79 80 81 82 83 83 84 84 84 85 85 86 87 87 89 90 91 92 93 93 93 92 92 91 90 89 89 89 89 90 90 89 88 86 84 83 82 83 83 83 83 83 82 82 82 82 81 81 81 82 82 81 81 81 81 81 81 82 83 84 85 85 84 84 84 83 83 82 82 82 82 82 82 82 81 81 82 82
61 62 63 64 65 66 67 68 69 69 70 71 72 74 75 76 77 78 80 81 81 82 83 82 83 83 83 84 85 86 88 89 90 91 92 92 92 91 91 90 89 88 88 88 87 87 87 87 87 87 86 85 84 84 83 83 83 83 83 82 81 81 81 80 80 80 80 80 80 80 79 79 78 78 79 79 80 81 81 82 82 82 82 82 82 81 81 80 80 80 79 79 79 79 79 79 79
64 65 65 66 66 67 68 69 70 71 72 73 74 76 77 78 78 79 80 80 80 81 81 81 82 82 84 85 87 88 89 91 91 92 91 91 90 89 87 87 86 85 85 85 85 85 85 85 85 84 84 85 85 85 85 85 84 83 82 82 81 81 80 80 80 80 79 79 78 78 77 77 77 77 77 77 77 77 77 76 77 77 77 77 78 78 78 79 78 78 78 77 77 77 77 76 76
64 65 66 66 67 68 70 71 72 74 75 76 76 77 77 78 78 78 78 78 78 79 80 81 83 84 86 88 89 90 91 91 91 90 89 88 87 85 84 83 83 83 83 83 83 83 84 85 84 84 85 86 87 87 86 86 85 84 83 82 81 80 80 80 79 78 78 77 77 77 76 75 76 75 74 73 72 71 69 69 68 68 69 69 70 72 73 74 75 75 75 75 75 75 75 74 74
66 67 68 70 71 72 73 74 75 76 77 78 78 78 77 77 77 77 78 79 79 80 82 84 85 87 88 90 90 90 90 89 88 86 85 83 83 82 81 81 81 81 82 82 82 83 84 85 85 85 87 88 88 88 88 87 86 85 84 82 81 80 80 79 78 77 77 77 77 76 74 74 74 72 71 69 67 65 63 62 62 62 62 62 63 64 66 68 69 70 71 71 72 71 71 71 72
69 71 72 73 74 75 75 76 77 77 78 78 78 78 77 77 78 79 80 81 82 83 84 86 87 88 88 88 88 86 85 84 83 81 80 79 79 79 79 80 80 81 82 82 82 83 85 86 86 87 88 89 88 88 88 88 87 85 84 82 81 80 79 79 78 77 77 77 76 75 73 73 71 69 67 65 63 62 60 60 60 60 59 58 58 59 59 61 63 64 65 66 67 67 68 68 68
72 73 74 75 75 76 76 77 77 77 77 77 77 78 78 79 80 82 84 84 85 86 86 87 86 85 84 84 83 81 79 77 77 77 77 77 77 78 79 80 80 81 82 82 83 84 86 87 88 88 89 89 89 89 88 87 86 85 83 82 81 80 80 79 78 78 78 77 75 73 72 71 68 67 64 62 61 61 60 60 59 59 58 57 56 55 54 55 56 58 60 61 62 63 63 63 63
74 75 75 76 76 76 77 77 77 76 76 77 79 80 81 82 83 84 85 86 86 85 85 83 81 80 79 79 78 76 75 74 74 75 76 77 78 79 80 81 81 82 83 84 85 86 87 88 89 89 89 89 89 89 88 86 85 83 82 81 80 80 79 79 79 78 78 76 74 72 71 68 66 65 63 61 61 61 60 60 59 58 57 55 55 54 52 50 51 52 54 55 57 58 58 58 58
76 76 76 76 76 76 76 77 77 78 78 79 81 82 84 86 85 85 85 85 83 82 80 78 76 75 76 76 76 75 74 74 75 76 77 78 79 81 82 82 83 84 85 86 87 88 89 89 89 90 90 90 90 88 87 85 83 82 81 80 80 80 79 79 78 78 77 75 72 70 68 66 64 63 62 62 61 61 61 60 59 58 56 55 54 53 52 50 49 49 49 50 52 53 55 55 56
75 75 75 76 76 77 78 79 79 80 81 82 83 83 85 87 86 84 84 83 81 79 77 76 74 74 75 76 76 77 77 77 77 77 79 80 81 82 83 84 85 86 87 88 88 89 90 90 90 90 90 90 89 87 85 83 82 81 81 80 80 79 79 78 78 77 75 72 69 67 65 64 63 62 63 63 62 62 61 60 59 58 56 55 54 53 53 52 50 50 50 50 52 53 55 56 57
75 75 76 77 78 79 81 82 82 83 83 83 84 82 82 86 85 83 82 81 79 78 76 75 74 74 76 77 78 79 80 80 80 81 82 83 84 85 86 86 87 88 89 90 90 91 90 90 90 90 90 89 88 86 84 83 82 81 80 80 79 78 77 76 74 72 70 68 66 64 63 63 62 63 63 63 63 62 61 61 60 58 57 56 55 54 54 53 53 53 53 53 55 56 57 58 59
76 77 78 79 80 81 83 84 84 84 83 83 84 81 80 84 84 81 81 80 78 76 76 76 76 76 78 79 79 81 82 83 84 85 86 87 87 88 88 89 90 91 91 92 92 92 91 90 90 90 89 88 86 85 83 82 81 80 80 79 78 77 74 71 68 66 64 64 63 62 62 62 63 63 63 63 63 63 62 61 61 59 58 57 56 56 55 55 55 55 55 56 57 58 59 60 60
79 80 80 81 82 82 83 84 84 83 81 82 82 80 79 81 82 80 79 78 76 76 77 79 78 79 80 81 81 82 83 85 86 88 89 90 90 90 91 92 93 93 93 93 93 92 91 91 90 89 87 86 85 83 82 81 80 79 78 77 76 73 68 65 63 61 60 60 60 61 62 63 64 64 64 64 64 64 63 62 62 61 59 58 58 57 57 57 57 57 58 58 58 59 60 61 61
82 82 81 82 81 81 81 82 82 81 80 81 81 80 79 80 80 79 77 77 76 78 80 82 81 82 83 83 84 84 84 86 87 89 90 91 91 92 94 95 95 95 95 94 93 93 92 91 89 87 86 85 84 83 82 80 79 78 77 75 72 68 63 61 59 58 58 58 59 60 62 64 65 65 65 65 65 65 65 64 64 63 61 61 60 60 60 60 60 60 60 60 60 61 62 63 63
82 81 80 79 80 79 80 80 80 80 80 81 81 80 79 79 78 77 77 78 79 80 83 84 84 85 85 85 86 86 87 88 89 90 91 92 92 94 96 97 97 96 96 95 94 93 92 90 88 86 85 84 83 82 81 79 78 77 75 72 67 63 61 59 58 57 57 58 60 62 64 65 66 67 67 67 66 67 66 66 66 65 64 64 64 64 64 64 63 63 64 64 64 64 65 66 66
80 79 78 78 78 78 79 80 79 80 80 80 81 79 77 76 77 77 79 80 81 82 84 85 86 87 87 87 87 88 90 90 90 90 91 92 94 96 97 98 97 97 96 95 94 93 91 89 87 86 85 84 83 81 79 78 76 74 71 67 64 62 60 59 58 58 59 60 62 64 66 67 68 69 69 69 69 69 68 68 68 68 67 67 67 68 68 68 68 67 68 68 68 68 69 70 70
78 78 77 77 77 77 79 80 80 80 80 79 80 79 76 76 77 79 81 83 83 83 85 87 88 88 88 89 90 91 92 90 90 90 91 94 96 97 98 98 98 97 97 96 94 92 90 88 87 85 84 83 81 80 78 76 73 70 66 64 63 62 61 61 61 62 63 64 66 67 69 69 70 70 71 71 71 71 71 71 70 70 70 70 70 71 72 72 72 72 72 72 73 73 73 74 74
76 76 77 77 77 77 79 80 80 80 79 79 81 80 78 79 79 79 82 84 84 85 87 89 89 89 90 92 93 93 92 90 91 92 94 96 97 98 98 98 98 97 96 94 93 91 89 87 86 84 82 81 80 78 75 71 68 65 64 63 63 63 64 64 65 65 66 68 69 70 71 72 72 72 73 73 73 73 73 73 73 74 74 74 74 75 76 76 76 76 76 77 77 78 78 79 79
76 77 77 78 78 78 79 80 80 81 80 80 82 81 81 81 80 81 83 85 87 88 90 90 90 91 93 95 95 93 92 92 93 95 96 97 98 98 98 98 97 96 94 93 91 90 87 85 84 82 81 80 78 75 71 67 65 64 64 64 65 66 67 67 68 69 70 71 72 73 73 74 74 74 75 75 75 75 76 76 77 78 78 78 78 79 80 80 81 81 81 81 82 82 83 85 84
77 78 78 78 79 79 79 81 81 82 81 80 81 81 82 83 83 83 85 87 89 91 91 92 92 94 95 94 93 92 93 94 96 97 98 98 98 98 98 97 96 94 93 91 89 87 85 83 82 81 80 78 75 71 68 66 65 65 65 66 67 68 70 71 72 73 74 74 74 75 75 76 76 77 78 78 78 79 80 80 81 82 82 83 83 84 85 85 86 86 86 86 87 87 88 89 90
78 79 79 79 80 80 80 81 81 82 81 81 81 82 83 84 84 85 88 89 90 91 92 93 94 94 93 92 92 94 95 97 97 98 98 98 98 98 97 95 94 92 91 89 87 85 84 82 81 79 77 74 71 69 68 68 68 68 68 69 70 71 73 74 76 77 77 77 77 77 78 78 79 80 81 82 83 83 84 85 85 86 87 87 88 88 89 90 91 91 91 91 91 92 92 93 95
79 80 80 80 80 80 79 79 79 79 80 81 83 84 83 84 85 87 88 89 90 92 93 93 93 92 92 93 95 96 97 97 98 98 98 98 97 96 94 93 91 90 89 87 86 83 81 79 77 75 73 71 70 70 70 70 71 72 72 73 73 74 75 77 78 79 80 80 80 81 81 81 81 82 84 85 86 87 88 88 89 90 91 92 92 93 94 95 96 96 96 96 96 96 97 97 99
80 80 79 78 78 77 77 77 76 76 78 80 83 85 83 84 86 87 88 89 91 92 91 91 91 92 94 96 96 97 97 97 97 98 97 96 94 93 91 90 89 88 86 84 82 79 77 75 73 72 71 71 72 72 73 74 75 75 76 76 77 77 78 80 81 82 83 84 84 85 85 86 85 86 87 88 89 90 91 92 93 94 95 96 97 98 98 99 100 101 101 101 101 101 101 102 103
76 76 76 75 75 75 75 75 75 75 75 78 82 84 82 82 84 86 87 89 89 90 91 91 93 94 95 96 96 97 97 97 96 95 94 93 91 90 89 87 85 83 81 78 77 75 74 73 72 72 73 73 75 76 77 78 78 79 80 80 80 81 82 84 85 86 87 87 89 89 90 91 91 90 91 92 93 94 95 96 97 98 99 100 101 102 103 104 104 105 105 106 106 106 106 106 107
72 73 73 73 73 73 73 73 74 74 75 77 81 84 83 82 84 86 88 89 90 91 92 93 94 94 95 95 96 96 96 95 93 92 91 90 88 86 84 82 79 77 76 75 75 74 73 73 74 74 76 77 78 80 81 82 82 83 84 85 85 86 86 87 89 90 91 92 93 94 95 96 96 96 96 96 97 98 99 100 101 102 103 105 106 106 107 108 108 109 109 109 109 110 110 110 110
71 71 72 72 72 72 73 73 74 75 75 77 81 83 84 84 85 88 90 91 92 92 92 93 94 95 95 95 94 93 92 91 90 89 88 86 84 81 79 78 77 76 76 76 76 76 76 76 77 78 80 81 83 84 85 86 87 87 89 89 90 91 91 92 93 94 96 97 98 99 100 101 102 103 102 102 102 102 103 103 104 105 106 107 108 108 108 109 109 109 109 109 109 110 110 111 111
70 70 71 72 72 72 72 73 75 76 77 78 82 84 86 86 87 90 92 92 92 93 93 93 93 93 92 91 91 89 89 87 86 85 83 81 80 79 78 78 78 78 78 79 79 79 80 81 82 83 84 85 87 88 89 90 92 93 93 94 95 96 97 97 98 99 100 101 103 104 106 107 107 108 108 108 107 106 105 105 105 106 106 107 107 107 108 108 109 109 110 110 110 111 112 112 112
69 69 70 71 71 72 72 74 76 78 80 82 84 86 88 88 88 90 92 92 92 92 92 92 90 89 88 87 86 85 84 83 82 82 81 80 80 80 81 81 81 82 82 83 84 84 85 86 87 88 89 90 91 92 93 95 96 98 99 99 100 101 102 103 103 104 105 106 107 108 109 110 111 111 110 110 109 108 107 107 107 107 108 109 109 110 111 111 112 113 113 114 114 115 116 117 117
68 69 70 71 73 74 75 76 79 81 82 83 85 86 87 88 88 89 90 90 89 88 87 86 85 84 84 82 82 82 82 82 82 82 83 83 84 84 85 85 86 87 87 88 89 90 91 91 92 93 95 95 96 97 98 99 101 103 104 105 106 106 107 107 107 107 108 108 108 109 109 110 111 111 110 110 111 111 111 111 111 111 112 113 114 114 115 116 116 117 117 118 119 120 121 121 122
69 71 73 74 75 76 76 77 79 80 82 83 84 85 85 83 83 82 82 81 81 81 80 80 80 80 80 81 82 83 84 84 85 86 87 88 89 89 90 91 92 93 93 94 95 96 96 97 98 99 100 100 101 102 103 104 106 108 109 109 109 109 108 108 108 108 108 109 109 109 109 110 111 112 113 113 113 114 114 115 115 116 116 117 118 118 119 120 120 121 122 122 123 124 125 126 126
72 74 76 77 77 77 76 76 77 77 78 78 78 77 75 74 74 75 76 76 77 78 79 80 81 82 83 84 86 87 88 89 90 91 92 93 94 95 96 97 97 98 99 99 100 100 101 101 102 102 103 103 104 105 105 107 108 110 110 110 110 110 110 110 111 111 111 111 111 111 112 113 114 114 115 116 117 118 118 119 120 120 121 121 122 122 123 123 124 124 125 125 126 127 128 129 129
72 74 76 77 78 77 75 72 71 70 68 68 70 72 72 73 73 75 77 79 80 82 83 84 85 87 88 89 90 91 92 94 95 95 96 97 98 98 99 100 101 101 102 102 103 103 103 103 104 104 105 105 105 106 107 108 109 110 111 112 112 112 112 112 113 113 114 114 114 114 115 115 116 117 118 119 120 121 121 122 122 123 123 123 124 124 124 125 125 125 125 125 126 127 128 129 129
72 73 74 73 72 71 69 67 67 67 66 66 70 73 74 76 78 79 81 82 83 85 85 87 88 89 90 91 92 93 94 95 96 96 97 98 99 100 101 102 103 103 104 104 105 105 105 105 106 107 107 107 107 108 108 109 110 112 113 113 114 114 114 115 115 116 116 117 117 117 117 117 117 117 118 119 119 120 121 121 122 122 122 122 123 123 123 123 122 122 122 122 123 123 125 125 126
66 66 66 65 66 67 68 68 69 72 71 70 73 75 76 78 79 80 82 83 83 84 85 87 88 89 90 91 92 93 95 96 97 98 99 100 101 103 104 105 106 107 107 108 108 109 109 109 110 111 111 111 111 111 112 113 114 114 115 115 116 116 116 116 116 116 117 117 117 116 116 116 116 115 116 116 117 117 118 118 118 118 119 119 119 120 120 120 119 119 119 119 119 120 120 121 122
62 63 64 65 67 69 71 71 72 74 74 72 73 75 76 78 79 80 81 82 83 84 85 87 88 90 91 93 94 95 96 98 99 100 101 103 104 105 107 108 109 110 110 111 112 113 113 113 114 115 115 115 115 115 116 116 117 117 117 117 117 117 116 116 115 115 115 114 114 114 114 113 113 113 113 113 113 113 114 114 115 115 115 116 116 116 117 117 116 116 115 115 116 117 117 118 118
64 65 67 68 69 70 71 72 73 74 74 72 72 73 76 79 82 83 83 84 85 87 88 90 92 93 95 96 98 99 100 101 102 104 105 106 108 109 110 112 112 113 114 115 116 116 117 117 118 118 118 118 118 117 117 118 119 119 119 119 118 117 116 115 115 114 114 114 113 113 113 112 112 111 110 110 110 110 110 110 110 110 111 112 112 113 113 114 114 114 113 113 113 114 115 115 116
65 66 67 68 69 70 71 73 75 76 76 76 75 74 78 83 86 87 88 89 91 92 93 95 96 98 99 101 102 103 104 106 107 108 110 111 113 114 115 116 117 118 119 119 120 120 120 120 121 121 121 120 120 119 118 118 118 118 118 118 117 117 117 116 115 115 114 113 113 112 111 110 109 109 108 107 107 107 107 107 107 108 108 109 110 111 111 112 112 112 112 112 111 112 113 113 113
65 67 68 69 71 72 73 75 79 81 82 83 83 79 80 86 90 90 91 93 94 96 96 98 99 101 102 104 105 107 108 109 111 112 113 115 116 117 118 119 119 120 120 120 120 120 120 120 120 120 120 119 119 119 118 118 117 116 116 116 115 115 115 114 114 113 112 111 111 110 109 108 108 108 107 107 107 107 106 106 106 107 107 108 108 109 109 110 110 110 110 110 110 110 110 110 111
68 69 71 73 74 76 77 78 81 84 86 88 89 85 84 88 91 92 94 95 96 98 99 101 102 104 106 107 109 110 111 113 114 114 115 116 116 116 117 117 117 117 117 117 117 117 118 118 118 118 117 117 117 117 117 117 116 115 114 114 113 112 112 112 111 110 110 109 109 108 107 107 107 107 106 106 106 106 106 105 105 105 106 106 106 106 107 107 107 107 107 107 107 108 107 107 107
Wind_Direction
247 249 251 252 252 253 253 254 255 256 256 257 257 258 258 259 260 260 261 262 263 265 266 267 268 269 270 270 270 270 271 271 271 272 273 273 274 274 274 275 275 276 276 277 277 277 278 278 278 278 278 278 278 278 278 278 278 278 277 277 277 277 276 276 276 276 276 276 276 276 275 275 274 274 274 273 273 273 272 272 271 270 270 269 269 268 268 267 266 266 265 264 264 264 264 264 263
252 253 255 256 257 257 257 257 257 258 258 259 259 259 260 261 262 263 264 265 265 266 267 267 268 269 270 271 271 272 272 272 273 274 274 274 274 275 275 275 275 276 276 277 277 278 278 278 278 279 279 279 279 279 279 279 279 279 278 278 278 277 277 277 276 276 276 275 275 275 274 274 273 273 272 272 272 272 271 271 270 270 269 269 268 268 267 266 266 265 264 263 263 262 262 262 262
252 254 256 257 258 258 258 258 258 259 259 260 260 261 262 263 264 265 265 266 266 267 267 268 269 270 271 272 273 273 274 274 274 275 275 275 275 275 275 275 276 276 277 277 278 278 278 279 279 280 280 280 280 280 280 280 280 279 279 279 278 278 278 277 277 276 276 275 275 274 274 274 273 273 272 272 271 271 270 270 269 269 269 268 268 267 267 266 266 265 264 263 262 262 261 260 260
253 255 256 257 258 258 258 259 259 260 260 261 262 262 263 264 265 265 266 267 268 269 269 270 271 272 273 273 274 274 275 275 275 275 275 275 275 276 276 276 277 277 278 278 279 279 279 280 280 280 280 280 280 280 280 280 280 279 279 279 278 278 278 278 277 277 276 276 275 275 274 274 273 273 272 272 271 271 270 269 269 269 268 268 267 267 266 266 265 265 264 263 262 261 261 260 259
256 256 257 257 258 258 259 260 260 261 262 263 263 264 265 265 266 267 268 269 270 271 271 272 273 273 273 274 274 274 275 275 276 276 276 276 277 277 278 278 278 278 279 279 279 279 279 279 279 279 279 280 281 280 280 280 279 279 279 278 278 278 278 277 277 277 276 276 275 275 274 274 274 273 273 272 271 271 270 270 269 268 268 267 267 266 266 265 264 264 263 263 262 261 261 260 259
256 256 257 258 259 259 260 261 262 263 264 265 265 266 266 267 268 268 269 270 271 272 272 273 273 274 274 274 275 275 275 276 276 277 277 277 278 278 279 279 279 279 279 279 279 279 279 279 279 280 281 281 281 280 280 280 279 279 279 279 278 278 278 278 278 277 277 276 276 276 275 275 274 274 273 273 272 271 271 270 269 268 268 267 266 266 265 265 264 263 262 262 261 261 260 259 259
254 255 256 258 260 261 262 263 264 265 265 266 266 267 267 268 269 270 271 271 272 273 273 274 274 274 275 275 275 275 276 276 277 277 277 278 278 279 279 279 279 279 279 279 279 279 280 280 281 281 281 281 281 280 280 280 280 280 280 280 280 280 279 279 279 278 278 277 277 276 276 275 275 274 274 274 273 272 271 271 270 269 268 267 266 266 265 264 264 263 262 261 260 260 259 259 258
254 256 257 258 260 262 263 264 265 266 266 267 267 268 268 269 270 271 272 272 273 274 274 274 275 275 275 275 275 275 276 276 277 277 277 278 279 279 279 280 280 280 280 280 281 281 281 281 281 281 281 281 281 281 281 281 281 281 281 281 281 281 281 280 280 279 279 278 278 277 277 276 275 275 274 274 273 273 272 271 270 270 269 267 266 266 265 264 264 263 262 261 260 260 259 258 258
256 257 258 259 260 262 263 264 265 265 266 267 268 268 269 270 271 272 272 273 273 274 274 274 275 275 274 274 274 275 275 276 277 278 278 279 279 280 280 280 280 281 281 281 282 282 282 281 281 281 282 282 282 282 282 282 282 282 282 282 282 281 281 281 280 280 279 279 278 278 277 276 275 275 274 273 273 272 272 271 271 270 269 268 267 266 265 265 264 263 263 262 261 260 259 259 258
258 259 260 261 262 263 264 264 265 265 266 267 268 268 269 270 270 271 271 272 273 274 274 274 274 275 275 275 275 276 277 278 278 279 279 280 280 281 281 281 281 282 282 282 282 282 282 282 282 282 282 282 283 283 283 282 282 282 282 281 281 281 280 280 280 279 279 278 278 277 276 275 275 274 273 272 272 271 271 270 270 269 269 268 268 267 266 266 265 264 263 263 262 261 260 260 259
260 261 262 263 263 263 264 265 266 266 266 268 269 269 270 270 271 271 272 273 273 274 274 275 275 276 277 278 278 279 280 280 280 281 281 281 281 281 281 281 281 282 282 282 282 282 282 282 282 282 283 283 283 282 282 282 282 281 281 281 280 280 280 279 279 278 278 277 277 276 275 274 273 273 272 271 271 270 269 269 268 268 267 267 267 267 266 266 266 265 264 264 263 262 262 261 260
262 263 263 263 264 264 265 267 268 268 268 269 270 271 271 272 272 273 273 274 274 275 276 277 278 279 280 280 281 281 282 282 282 282 282 282 282 282 282 281 282 282 282 282 282 282 282 282 282 283 283 283 282 282 282 281 281 281 281 280 280 280 279 279 279 278 277 277 276 275 274 273 272 272 271 270 270 269 268 267 267 266 266 266 266 265 265 265 265 265 265 264 264 263 263 262 261
264 264 264 264 265 266 268 269 269 270 270 270 270 271 271 272 274 274 275 276 277 278 279 280 281 281 282 282 282 283 283 283 283 283 283 283 283 283 282 282 282 282 282 282 282 282 283 283 283 283 282 282 282 282 282 281 281 281 281 280 280 280 279 279 278 278 277 276 276 275 274 273 272 272 271 270 269 268 268 267 266 266 265 265 265 265 265 264 264 264 264 264 264 263 263 262 262
264 265 265 266 267 268 269 269 268 268 268 269 270 272 273 274 276 277 278 279 280 281 281 281 282 283 283 284 284 285 285 285 285 285 285 284 284 283 283 283 283 282 283 283 283 283 282 282 282 282 282 282 282 282 282 281 281 281 281 280 280 280 279 279 278 277 277 276 275 275 274 273 272 272 271 270 269 269 268 267 267 266 266 266 265 265 264 264 264 263 263 263 263 262 262 261 261
264 265 266 267 268 268 267 267 266 267 268 270 272 274 276 277 279 280 281 282 283 283 283 283 283 284 285 285 286 286 286 286 286 285 285 284 284 284 283 283 283 283 283 283 283 283 283 283 283 283 283 282 282 282 282 282 281 281 281 281 280 280 279 279 278 277 276 276 275 275 274 273 273 272 272 271 270 270 269 269 268 267 267 266 266 265 264 264 263 263 262 262 261 261 260 260 259
265 266 266 266 266 266 266 266 268 270 272 274 276 277 279 280 281 282 282 283 283 283 284 284 284 285 285 285 286 286 286 285 285 284 284 284 284 283 283 283 283 283 283 283 283 283 283 283 283 283 283 282 282 282 282 282 282 282 281 281 280 279 279 278 277 277 276 276 276 275 275 274 274 274 273 273 273 272 271 271 270 269 268 267 267 266 265 264 263 262 261 261 260 260 259 258 258
263 263 263 263 265 266 267 269 272 274 276 277 278 279 280 281 281 282 282 283 283 283 284 285 285 285 285 285 285 285 285 284 284 284 283 283 283 283 283 283 283 283 283 283 283 283 283 283 283 282 282 282 282 282 282 282 282 282 281 280 279 278 277 277 276 276 276 275 275 275 274 274 274 274 274 274 274 274 273 273 272 271 270 269 267 266 265 264 263 262 261 260 259 258 258 257 257
262 262 263 265 266 269 271 272 275 276 277 278 279 279 279 280 281 281 282 283 283 284 285 285 285 285 285 285 284 284 284 283 283 283 282 282 282 282 283 283 283 283 284 284 284 284 283 283 283 282 282 282 282 282 282 282 282 281 280 279 278 277 276 276 275 275 275 274 274 273 273 273 273 273 273 274 274 274 274 273 272 271 270 269 268 267 266 265 264 263 262 261 260 258 257 256 256
265 265 267 268 269 271 273 274 275 276 277 278 278 279 279 280 280 281 282 283 283 284 285 285 285 284 284 284 284 283 283 283 283 283 283 283 283 283 283 284 284 284 284 284 284 284 283 283 283 283 283 283 283 283 282 282 281 280 279 278 277 277 276 276 275 275 274 273 273 273 273 273 273 274 274 274 274 274 273 273 272 272 271 270 269 267 266 265 264 263 262 261 261 259 258 257 255
268 269 270 271 272 273 273 274 275 276 277 278 279 279 280 280 281 281 282 283 283 284 284 284 284 283 283 283 283 283 283 283 283 283 284 284 284 284 284 284 284 284 284 284 284 284 284 284 284 284 284 284 284 283 283 282 281 280 280 279 279 278 278 277 276 275 275 274 274 274 275 275 275 275 275 275 274 274 274 274 273 272 271 270 269 267 266 264 263 262 262 261 261 260 259 257 256
270 271 272 272 273 273 274 275 276 277 278 278 279 280 281 281 282 282 283 283 284 284 283 283 283 283 283 283 283 284 284 284 284 285 285 285 285 284 284 284 284 284 284 284 284 284 284 284 284 285 285 285 286 285 285 284 284 283 282 282 281 280 279 279 278 277 277 277 277 277 277 277 277 276 275 275 275 275 274 274 273 272 271 270 268 267 265 264 263 262 261 260 260 259 259 258 257
272 272 272 273 273 274 275 276 277 278 279 280 281 282 282 283 283 283 283 283 283 283 283 283 283 283 284 284 284 284 285 285 285 285 285 285 284 284 284 284 284 284 284 285 285 285 285 286 286 287 288 288 288 288 287 286 285 285 284 284 283 282 281 280 279 279 279 279 279 278 278 277 277 276 275 275 275 274 273 273 272 271 270 269 268 266 265 263 262 261 260 259 259 259 258 258 257
271 272 272 273 274 276 277 278 279 280 281 282 282 283 283 283 283 283 282 282 282 282 283 283 283 284 284 284 285 285 285 285 285 285 285 284 284 284 285 285 285 286 286 286 286 287 287 287 288 289 289 289 289 288 288 287 287 286 286 285 284 283 282 281 281 281 281 280 279 278 278 278 276 276 275 274 274 273 272 271 271 271 270 269 268 266 264 262 261 259 259 258 258 258 258 257 257
271 273 274 275 277 278 279 280 281 281 282 283 283 283 282 282 282 282 281 281 281 282 283 284 284 285 285 285 285 285 285 285 285 285 285 285 286 286 286 287 287 287 287 287 287 288 288 289 289 289 289 289 289 288 288 288 288 288 287 286 285 284 283 282 282 282 281 280 279 279 278 277 276 275 274 273 272 270 269 269 269 270 270 270 269 267 264 262 260 258 257 257 256 256 256 256 256
273 275 276 277 278 278 279 280 281 281 282 282 282 281 281 281 281 281 281 282 282 283 284 285 285 285 286 286 286 286 286 286 286 287 287 287 287 288 288 288 288 287 287 288 288 289 289 289 290 289 289 289 289 289 289 289 289 288 288 287 285 284 284 283 282 281 280 279 279 279 278 276 275 274 272 270 269 268 268 268 268 269 269 270 269 267 265 262 259 257 256 256 255 255 255 255 255
275 276 277 277 278 278 279 280 280 281 281 281 281 281 281 281 281 282 282 283 284 284 285 285 286 286 286 286 286 286 287 287 288 288 288 288 288 288 288 288 288 288 288 289 289 290 290 291 291 290 290 290 289 290 289 289 288 288 287 286 285 284 284 283 282 281 280 279 279 278 277 275 273 271 269 268 267 267 268 268 268 268 268 268 268 267 265 262 259 257 255 255 255 255 254 254 254
277 278 278 278 279 279 280 280 280 281 281 281 281 282 282 282 282 283 284 284 285 286 286 287 287 287 287 287 288 288 288 288 288 287 287 287 288 288 289 289 289 289 290 290 291 291 292 292 292 291 291 290 290 290 289 288 288 287 286 286 285 284 283 283 282 281 280 279 278 277 275 273 271 269 267 266 267 267 267 268 267 267 267 267 267 266 264 262 259 257 255 254 254 254 253 253 253
278 278 279 279 280 280 280 281 281 281 281 282 282 283 283 283 283 284 285 285 286 286 287 287 288 289 289 290 290 289 288 287 287 286 286 287 288 289 290 290 291 291 291 292 292 293 293 293 292 291 291 291 290 290 289 288 288 287 286 285 285 284 284 283 282 281 280 279 277 275 273 270 268 266 266 266 267 267 267 267 267 267 267 266 265 265 263 261 259 257 255 254 254 253 253 252 252
278 279 280 280 280 281 281 281 281 281 282 282 283 284 285 285 285 285 285 286 286 287 287 288 288 290 291 292 292 291 289 287 286 285 286 287 288 290 291 292 292 292 292 292 293 293 293 293 292 292 291 291 290 289 289 288 288 287 286 285 285 284 284 283 282 280 279 277 275 272 270 267 265 265 265 266 267 267 267 267 267 267 266 266 265 265 264 262 260 258 257 255 254 254 254 254 254
279 280 280 280 281 281 281 281 282 282 283 284 284 285 286 286 286 286 286 287 287 288 288 288 289 291 292 293 293 292 289 287 286 286 286 287 289 290 292 292 292 292 292 292 293 293 293 292 292 292 291 291 290 289 289 288 287 287 286 286 285 285 284 283 281 279 276 274 271 269 266 264 263 264 265 266 267 267 267 267 267 267 267 266 266 265 264 263 261 259 258 257 256 256 256 256 255
279 280 280 281 281 282 283 283 284 284 285 285 285 286 286 286 287 287 287 288 289 289 289 289 291 292 293 294 293 292 290 287 286 286 287 288 289 291 292 293 293 292 292 293 293 293 292 292 292 292 291 290 289 289 288 288 287 286 286 285 285 285 284 282 280 277 274 271 269 266 263 262 263 264 266 266 267 267 268 268 268 268 267 267 266 266 265 264 263 261 259 258 257 257 257 257 256
279 280 281 282 282 283 284 284 285 285 286 286 286 286 286 286 287 288 288 288 289 289 289 290 291 293 293 294 293 292 291 289 287 287 287 288 289 290 292 293 293 293 293 293 293 293 292 292 292 291 290 289 289 288 288 287 287 286 286 285 285 285 283 281 279 276 273 269 266 263 262 263 264 266 266 267 268 268 268 268 268 268 267 267 266 266 265 264 264 263 261 260 258 258 257 257 256
280 281 282 283 283 284 284 285 285 286 286 285 286 286 286 286 286 287 288 288 288 288 289 290 292 292 293 293 292 292 292 291 289 287 287 288 289 290 291 292 292 293 293 293 293 293 292 292 291 290 290 289 288 288 287 287 286 286 285 285 284 282 280 279 277 274 271 267 264 263 263 264 265 266 266 267 267 268 268 268 268 267 267 266 266 265 265 264 263 263 262 261 259 259 258 257 257
281 282 283 283 283 284 284 284 285 285 285 285 285 286 286 286 286 287 287 288 288 288 289 290 291 292 292 292 291 291 292 292 290 289 288 288 289 290 291 292 292 293 293 293 293 292 292 291 291 290 289 289 288 287 287 286 286 285 284 282 280 278 277 276 274 271 268 266 264 264 264 265 266 266 266 267 267 267 268 268 268 267 267 266 265 265 264 264 263 263 263 262 260 259 259 258 257
281 282 282 283 283 284 284 284 284 284 284 285 285 285 285 285 286 286 286 286 287 288 289 290 291 291 291 291 291 292 292 292 291 289 289 289 289 290 291 292 292 293 293 293 292 292 291 291 290 290 289 288 287 286 286 286 285 283 281 278 275 274 273 273 272 270 267 265 265 265 265 266 266 266 267 267 267 267 267 267 267 267 267 266 266 266 265 265 264 263 263 263 262 261 260 260 259
282 282 283 283 283 284 284 284 284 284 285 285 285 285 284 284 285 285 285 286 287 288 289 290 291 291 292 291 292 292 292 291 290 289 289 289 290 290 291 292 293 293 293 292 292 291 291 290 290 289 288 287 286 286 285 284 282 280 277 274 271 271 270 270 269 268 267 266 266 266 266 266 267 267 267 268 268 268 268 268 268 268 267 267 267 266 266 266 265 264 264 263 263 262 262 261 260
282 283 283 283 283 283 283 283 283 283 284 284 284 285 284 283 283 284 285 286 287 288 289 290 290 291 291 291 292 292 292 291 290 290 290 290 291 292 292 292 292 292 292 292 291 291 290 290 289 288 287 286 285 284 283 281 278 276 273 271 269 269 269 269 269 268 267 267 267 267 267 267 267 268 268 268 268 268 268 268 268 268 268 268 267 267 266 266 266 265 265 264 264 264 263 262 261
282 282 283 283 283 283 283 283 282 282 282 283 284 284 284 283 283 283 284 285 286 288 288 289 290 290 291 292 292 292 291 291 291 291 291 292 292 292 292 292 292 291 291 291 290 290 289 289 288 286 285 285 284 282 279 277 274 273 271 270 269 269 270 270 270 269 268 268 268 268 268 268 268 269 268 268 268 268 268 268 268 268 268 268 268 268 267 267 267 266 266 265 265 264 264 264 263
283 283 283 283 283 283 283 283 282 282 282 283 283 284 283 283 284 284 284 285 286 287 288 289 290 291 291 292 291 291 291 291 292 292 292 292 292 292 292 292 291 291 291 290 290 289 289 288 287 286 284 283 281 279 276 274 273 272 271 271 270 270 271 270 270 270 269 268 268 268 268 268 268 268 268 268 267 267 267 267 267 267 267 267 267 267 267 266 266 266 266 266 265 265 265 264 264
284 284 285 285 285 284 284 284 283 283 283 282 282 283 283 283 283 284 284 285 286 287 288 289 290 291 291 291 291 291 291 292 292 292 292 292 292 292 292 291 291 291 291 290 289 289 288 287 286 285 283 281 279 276 275 275 274 273 273 272 272 271 272 272 271 271 270 270 269 268 268 267 267 267 267 267 267 267 267 267 267 267 267 267 266 266 266 266 265 265 265 264 264 264 264 264 264
285 285 286 286 286 286 285 285 284 284 284 283 282 282 283 283 283 284 285 285 286 288 289 290 290 290 291 291 291 292 292 292 292 292 292 291 291 291 291 291 291 290 290 289 289 288 287 286 285 283 281 279 277 276 275 275 275 274 274 273 273 273 273 272 272 273 273 272 271 270 269 269 268 268 267 267 267 267 267 267 267 267 267 267 267 267 267 266 266 265 265 264 264 263 263 263 263
286 286 286 287 287 287 287 286 286 286 285 285 284 284 284 285 285 285 286 287 287 288 289 289 290 291 291 291 292 292 292 292 292 292 292 291 291 291 291 290 290 290 289 289 288 287 286 285 284 282 280 278 277 276 276 276 275 275 275 274 274 274 274 273 273 273 273 273 273 272 271 270 269 269 268 268 268 268 268 268 268 268 268 268 267 267 267 266 266 266 265 265 264 264 263 263 263
286 287 287 288 288 288 288 288 288 287 287 286 286 286 286 286 286 287 287 288 288 289 289 290 291 291 291 291 292 292 292 292 292 291 291 291 291 291 290 290 290 289 289 288 288 287 286 284 283 281 280 279 278 278 278 277 277 277 277 276 276 275 275 275 275 274 274 274 273 273 273 272 271 271 270 270 269 269 269 269 269 268 268 268 267 267 267 266 266 266 265 265 265 264 264 263 263
286 287 287 288 288 288 289 289 289 288 288 288 287 287 288 288 288 288 288 289 289 290 291 291 291 291 292 292 292 292 292 291 291 291 291 291 291 291 290 290 290 289 288 288 287 286 285 284 282 281 280 279 279 279 279 279 279 278 278 277 277 276 276 275 275 275 275 275 275 275 275 275 274 274 273 272 271 271 270 270 270 269 269 268 268 268 267 267 266 266 266 265 265 264 264 263 263
286 287 288 288 289 289 289 290 290 289 289 289 288 289 289 290 290 290 290 291 291 291 292 292 292 292 292 292 292 291 291 291 291 291 291 291 290 290 290 289 289 288 288 287 286 285 284 283 281 280 279 279 279 279 279 279 278 278 278 277 277 277 276 276 276 276 276 277 277 277 277 277 277 277 276 275 274 273 272 272 271 270 270 269 269 268 268 268 267 267 266 265 265 264 263 263 262
287 288 288 289 290 290 290 290 290 290 290 289 289 290 290 291 292 291 292 292 292 292 293 292 292 292 292 291 291 291 292 292 291 291 290 290 290 290 289 289 288 287 286 286 284 283 282 281 280 279 279 279 279 279 279 279 279 278 278 278 278 277 277 277 277 277 277 277 278 278 278 278 278 278 277 277 276 275 274 273 272 271 271 270 269 269 268 268 268 267 267 267 266 265 265 264 263
289 289 289 290 290 290 290 291 290 290 291 291 291 291 292 292 293 292 292 293 293 293 292 292 292 292 291 291 292 292 291 291 290 290 290 289 289 288 288 287 286 285 284 283 282 281 281 280 280 279 279 279 279 278 279 279 278 278 278 277 277 276 276 276 276 276 276 276 276 276 276 277 277 277 277 276 276 275 275 274 273 272 272 271 270 270 269 269 268 268 268 267 267 266 266 265 264
289 289 289 290 290 290 291 291 291 292 292 292 293 293 293 293 293 293 293 292 292 292 292 292 292 291 291 292 292 291 290 290 290 290 289 288 288 287 286 285 284 283 282 282 281 281 280 280 279 279 279 279 279 279 279 279 278 278 277 277 276 276 276 276 276 276 276 276 276 276 276 276 276 276 276 276 276 275 275 274 273 273 272 271 271 270 270 269 269 268 268 267 267 266 266 265 264
291 291 291 291 291 292 292 292 293 293 294 294 294 294 294 294 294 294 294 293 293 293 292 292 292 292 292 292 291 290 290 290 290 289 288 288 287 286 286 285 284 284 283 283 282 282 281 281 281 281 280 280 280 280 280 279 279 279 278 278 279 279 279 279 279 278 278 278 278 277 277 277 277 277 276 276 276 275 275 274 274 273 272 272 271 270 270 269 269 268 268 267 267 266 265 264 264
293 293 293 293 293 293 294 294 294 295 295 295 295 295 296 296 296 295 295 295 294 294 293 293 293 293 292 291 291 291 290 290 290 289 288 288 288 287 287 286 286 285 285 285 284 284 284 284 283 283 283 283 282 282 282 281 281 281 281 281 281 281 281 281 280 280 279 279 279 278 278 277 277 277 277 276 276 276 275 275 274 273 273 272 271 270 270 269 268 268 267 267 266 266 265 265 264
295 295 295 295 295 296 297 297 296 296 296 297 297 297 297 297 296 296 295 295 295 294 294 294 294 293 292 292 292 291 291 291 290 290 290 289 289 289 288 288 288 287 287 286 286 286 286 286 285 285 285 284 284 283 283 283 283 282 282 282 282 282 281 281 281 280 280 279 278 278 277 277 276 276 276 276 275 275 275 274 274 273 273 272 271 270 270 269 268 268 267 266 266 266 265 265 264
296 296 296 296 297 298 299 299 299 298 297 297 297 297 297 296 296 295 295 294 294 294 294 293 293 292 292 292 292 292 292 291 291 291 291 291 291 290 290 289 289 289 288 288 288 288 287 287 287 286 286 285 285 284 284 284 283 283 282 282 282 282 281 281 280 280 280 279 279 278 277 277 276 276 275 275 275 275 274 274 274 274 273 273 272 271 271 270 269 268 268 267 266 266 265 265 264
298 298 298 299 300 300 300 300 300 299 299 298 297 297 297 296 296 295 294 294 294 294 294 294 294 294 294 294 293 293 293 293 293 293 293 292 292 292 291 291 290 290 290 290 289 289 288 288 287 287 286 286 286 285 285 284 284 283 283 282 282 282 281 281 281 280 280 279 279 278 278 277 277 276 276 275 275 275 275 274 274 274 273 273 272 272 271 270 269 269 268 267 266 266 265 264 264
301 301 301 301 301 300 300 300 299 298 298 298 298 298 297 297 296 295 295 295 295 295 295 295 295 295 294 294 294 294 293 293 293 293 292 292 291 291 290 290 290 290 289 289 289 288 288 288 287 287 286 286 286 286 285 285 285 284 284 284 283 283 282 282 282 281 280 280 280 279 279 278 277 277 276 275 275 274 274 274 273 273 272 272 272 271 271 270 269 268 268 267 266 266 265 264 264
302 301 301 301 301 300 300 300 299 299 298 298 298 299 299 299 298 297 298 298 298 297 297 297 297 296 296 295 295 294 294 294 293 293 292 292 291 290 290 290 290 289 289 289 289 289 289 288 288 288 288 288 287 287 287 286 286 286 285 285 285 285 284 284 283 283 282 281 281 280 280 279 278 277 276 275 275 274 273 273 273 272 272 272 272 271 271 270 270 269 268 267 267 266 265 265 264
302 302 302 303 303 303 303 303 303 302 302 301 301 302 302 301 300 300 301 300 300 299 299 298 297 296 296 295 295 294 294 294 293 292 292 291 291 291 291 290 290 290 290 290 289 289 289 289 289 289 289 288 288 288 287 287 286 286 286 285 285 285 284 284 283 283 282 282 281 281 280 280 279 278 278 277 276 275 275 274 274 274 273 273 272 272 271 270 270 269 268 267 267 266 265 265 264
305 305 306 306 306 306 307 307 306 305 305 304 304 304 303 301 300 301 300 299 299 298 297 296 295 295 294 294 293 293 293 292 292 291 291 290 290 290 290 290 290 290 289 289 289 289 289 289 289 288 288 288 288 287 287 287 286 286 285 285 285 284 284 284 283 283 283 282 282 282 281 281 281 280 280 279 278 278 277 276 275 275 274 273 273 272 271 271 270 269 269 268 267 266 265 265 264
309 309 309 309 309 309 308 307 306 305 304 303 303 303 302 299 299 299 298 298 297 296 295 294 294 293 293 293 292 292 292 291 291 291 291 290 290 290 290 290 290 290 289 289 289 289 289 288 288 288 288 288 287 287 287 286 286 286 286 285 285 285 285 285 285 284 284 284 283 283 282 282 281 281 280 279 279 278 277 276 276 275 274 274 273 273 272 271 271 270 270 269 268 267 266 265 265